Tracking 29892 objects as of 21-Nov-2024
HD Live streaming from Space Station
objects crossing your sky now

STARLINK-6083

Track STARLINK-6083 now!
10-day predictions
STARLINK-6083 is classified as:


NORAD ID: 56109
Int'l Code: 2023-046S
Perigee: 565.4 km
Apogee: 567.0 km
Inclination: 43.0 °
Period: 95.8 minutes
Semi major axis: 6937 km
RCS: Unknown
Launch date: March 29, 2023
Source: United States (US)
Launch site: AIR FORCE EASTERN TEST RANGE (AFETR)
Your satellite tracking list
Your tracking list is empty




NASA's NSSDC Master Catalog

Two Line Element Set (TLE):
1 56109U 23046S   24326.09969114 -.00000293  00000-0 -65985-5 0  9996
2 56109  43.0034 212.1485 0001185 257.2424 102.8286 15.02533649 91365
Source of the keplerian elements: AFSPC